DEIMOS-1 1 35681U 09041A 21017.57059300 .00000115 00000-0 25841-4 0 9998 2 35681 97.7795 248.1784 0002938 89.2993 270.8546 14.71868573615885 DUBAISAT-1 1 35682U 09041B 21017.45482593 .00000089 00000-0 23085-4 0 9998 2 35682 97.7399 190.8146 0010243 284.8720 75.1375 14.68847191614536 UK-DMC 2 1 35683U 09041C 21017.49388712 -.00000032 00000-0 22415-5 0 9997 2 35683 97.6839 214.2417 0001752 105.1246 255.0181 14.71183541615643 APRIZESAT 4 1 35684U 09041D 21017.52395964 .00000037 00000-0 12641-4 0 9992 2 35684 98.2970 8.8068 0046535 204.8540 155.0429 14.79329928618835 NANOSAT 1B 1 35685U 09041E 21017.13961310 .00000068 00000-0 14897-4 0 9993 2 35685 98.2383 60.5652 0059637 134.6413 225.9685 14.84367932620572 APRIZESAT 3 1 35686U 09041F 21016.78359717 .00000073 00000-0 14366-4 0 9993 2 35686 98.1559 85.9794 0074052 73.3167 287.6160 14.87458943621792 SL-24 R/B 1 35688U 09041H 21017.18455365 -.00000022 00000-0 10027-4 0 9991 2 35688 98.1209 78.2720 0429124 304.7790 111.6308 13.74238317575342 SL-24 DEB 1 35689U 09041J 21017.36670766 .00000129 00000-0 25972-4 0 9998 2 35689 97.7576 255.7874 0021860 228.6603 131.2726 14.75666468616925